Flag for U.S.A. Weather past 2 weeks in Pullman, Washington, U.S.A.

Now
41 °F

Sunny.


Feels Like: 35 °F
Forecast: 40 / 49 °F
Wind: 9 mph from East

Location: Pullman / Moscow Regional Airport

Current Time: Jan 27, 2015 at 9:14:56 AM

Latest Report: Jan 27, 2015 at 7:53 AM


Visibility: 10 mi

Pressure: 30.03 "Hg

Humidity: 76%

Dew point: 34 °F

Location of PullmanLocation

Historic Weather in Pullman — Graph

°F

Pullman temperature yesterday

Maximum temperature yesterday: 58 °F (at 1:53 PM)
Minimum temperature yesterday: 43 °F (at 6:53 AM)
Average temperature yesterday: 49 °F

Past Weeks' High & Low Weather Summary

 TemperatureHumidityPressure
High58 °F (Jan 26, 1:53 PM)100% (Jan 12, 7:53 AM)30.60 "Hg (Jan 12, 7:53 AM)
Low27 °F (Jan 13, 11:53 PM)55% (Jan 26, 11:53 AM)29.86 "Hg (Jan 18, 12:53 AM)
Average38 °F82%30.32 "Hg
* Reported Jan 12 7:53 AM — Jan 27 7:53 AM, Pullman, Weather by CustomWeather, © 2014

Note: Actual official high and low records may vary slightly from our data, if they occured in-between our weather recording intervals... More about our weather records

Advertising

Pullman weather history for previous 24 hours

 ConditionsComfort  
Time TempWeatherWind HumidityBarometerVisibility
7:53 AM
Jan 27
41 °FSunny.9 mph76%30.03 "Hg10 mi
6:53 AM41 °FClear.9 mph76%30.02 "Hg10 mi
5:53 AM41 °FClear.8 mph76%30.02 "Hg10 mi
4:53 AM41 °FClear.8 mph76%30.01 "Hg10 mi
3:53 AM41 °FClear.8 mph76%30.02 "Hg10 mi
2:53 AM41 °FClear.6 mph80%30.02 "Hg10 mi
1:53 AM42 °FClear.7 mph76%30.03 "Hg10 mi
12:53 AM43 °FClear.7 mph76%30.03 "Hg10 mi
11:53 PM
Jan 26
44 °FClear.5 mph73%30.03 "Hg10 mi
10:53 PM47 °FClear.8 mph66%30.02 "Hg10 mi
9:53 PM47 °FClear.7 mph66%30.03 "Hg10 mi
8:53 PM47 °FClear.6 mph66%30.03 "Hg10 mi
7:53 PM47 °FClear.8 mph69%30.04 "Hg10 mi
6:53 PM47 °FClear.5 mph69%30.05 "Hg10 mi
5:53 PM48 °FClear.8 mph68%30.05 "Hg10 mi
4:53 PM51 °FClear.8 mph63%30.05 "Hg10 mi
3:53 PM55 °FSunny.10 mph57%30.05 "Hg10 mi
2:53 PM57 °FSunny.13 mph55%30.05 "Hg10 mi
1:53 PM58 °FSunny.14 mph56%30.06 "Hg10 mi
12:53 PM57 °FSunny.12 mph55%30.08 "Hg10 mi
11:53 AM56 °FSunny.16 mph55%30.09 "Hg10 mi
10:53 AM54 °FSunny.17 mph57%30.11 "Hg10 mi
9:53 AM51 °FSunny.14 mph59%30.11 "Hg10 mi
Weather by CustomWeather, © 2014

See weather overviewHow to use our weather pages